Snowfall_Accumulation
0.0 0.0 0.0 0.0 0.0 0.0 0.0 0.7 0.5 1.2 0.0 0.0 0.0 0.0 0.0 0.0 0.0 0.0 0.0 0.0 0.0 0.0 0.0 0.0 0.0 0.0 0.0 0.0 0.0 0.0 0.0 0.0 0.0 0.0 0.0 0.0 0.0 0.0
0.0 0.0 0.0 0.0 0.0 0.0 0.0 0.7 0.4 0.0 1.9 0.0 0.0 0.0 0.0 0.0 0.0 0.0 0.0 0.0 0.0 0.0 0.0 0.0 0.0 0.0 0.0 0.0 0.0 0.0 0.0 0.0 0.0 0.0 0.0 0.0 0.0 0.0
0.0 0.0 0.0 0.0 0.0 0.0 0.0 0.0 0.9 0.4 1.3 0.2 0.1 0.5 0.3 0.0 0.0 0.0 0.0 0.0 0.0 0.0 0.0 0.0 0.0 0.0 0.0 0.0 0.0 0.0 0.0 0.0 0.0 0.0 0.0 0.0 0.0 0.0
0.0 0.0 0.0 0.0 0.0 0.0 0.0 0.3 0.9 0.4 0.8 0.9 0.6 0.3 0.1 0.0 0.0 0.0 0.0 0.1 0.0 0.0 0.0 0.0 0.0 0.0 0.0 0.0 0.0 0.0 0.0 0.0 0.0 0.0 0.0 0.0 0.0 0.0
0.0 0.0 0.0 0.0 0.0 0.0 0.9 0.6 0.2 0.7 0.9 1.8 0.2 0.0 0.0 0.6 0.0 0.0 0.0 0.0 0.0 0.0 0.0 0.0 0.0 0.0 0.0 0.0 0.0 0.0 0.0 0.0 0.0 0.0 0.0 0.0 0.0 0.0
0.0 0.0 0.0 0.3 0.2 0.6 0.4 0.6 0.3 0.5 0.5 1.1 1.6 1.3 0.3 0.0 0.2 0.0 0.0 0.0 0.0 0.0 0.0 0.0 0.0 0.0 0.0 0.0 0.0 0.0 0.0 0.0 0.0 0.0 0.0 0.0 0.0 0.0
0.0 1.6 1.3 1.0 0.5 0.7 0.5 0.2 0.2 0.1 1.5 3.7 3.8 3.8 1.2 0.9 0.0 0.0 0.0 0.0 0.2 0.0 0.0 0.0 0.0 0.0 0.0 0.0 0.0 0.0 0.0 0.0 0.0 0.0 0.0 0.0 0.0 0.0
2.3 2.2 1.1 0.4 0.2 0.0 0.0 0.0 0.0 0.6 3.3 5.1 4.4 2.8 1.0 1.3 0.0 0.5 2.9 2.2 2.7 0.0 0.0 0.1 0.0 0.0 0.0 0.0 0.0 0.0 0.0 0.0 0.0 0.0 0.0 0.0 0.0 0.0
1.3 0.8 0.7 0.1 0.2 0.1 0.0 0.0 0.3 0.3 0.5 0.6 1.3 1.6 1.4 0.2 3.1 4.3 2.8 3.3 2.9 0.0 0.2 0.5 0.0 0.0 0.0 0.0 0.0 0.0 0.0 0.0 0.0 0.0 0.0 0.0 0.0 0.0
0.3 0.1 0.0 0.0 0.0 0.1 0.2 2.0 1.0 0.0 0.0 0.0 0.1 0.4 0.8 0.3 1.7 0.9 1.6 3.0 0.9 0.0 0.1 4.0 0.0 0.1 0.0 0.0 0.0 0.0 0.0 0.0 0.0 0.0 0.0 0.0 0.0 0.0
0.1 0.0 0.1 0.1 0.0 0.1 1.4 1.8 0.3 0.1 0.0 0.0 0.2 0.1 0.0 0.0 0.0 2.7 5.4 8.5 7.4 1.2 0.0 1.3 0.4 0.2 0.0 0.0 0.0 0.0 0.0 0.0 0.0 0.0 0.0 0.0 0.0 0.0
0.0 0.1 0.0 0.2 0.1 0.5 0.8 1.0 1.8 0.2 1.2 0.8 0.1 0.0 0.0 0.0 0.0 0.2 6.5 21.2 10.7 6.2 0.0 5.4 1.5 1.8 7.3 0.0 0.1 0.0 0.0 0.0 0.0 0.0 0.0 0.1 0.1 0.4
0.6 0.0 0.0 0.1 0.7 0.2 0.2 1.0 1.2 0.3 0.2 0.3 0.1 0.1 0.1 0.2 0.1 0.1 2.2 13.5 21.3 16.5 0.0 12.5 15.5 5.2 10.4 4.3 2.5 2.5 1.7 1.1 1.5 2.0 1.9 1.2 0.9 1.0
1.8 0.7 0.3 1.0 0.1 0.1 0.4 0.4 0.3 0.4 1.4 2.8 1.1 0.7 0.4 0.5 0.3 0.8 1.2 3.6 5.3 13.5 5.9 8.2 31.4 15.2 19.9 15.1 5.6 5.9 4.4 5.3 7.5 8.0 9.3 2.5 1.0 0.6
1.7 1.1 1.0 0.4 0.3 0.3 0.2 0.3 0.4 0.6 1.8 4.8 2.6 1.3 0.2 0.2 0.5 1.0 1.1 2.5 4.2 6.0 6.9 8.0 13.0 15.7 21.1 21.4 12.8 5.5 7.7 6.9 6.5 7.7 6.5 6.5 5.1 3.2
1.7 2.2 0.8 0.6 0.6 0.6 1.1 0.8 0.4 0.7 2.4 4.1 3.4 0.8 0.2 0.6 1.1 1.9 6.3 5.9 10.8 6.9 7.6 6.5 9.3 14.6 17.7 10.4 11.5 8.5 9.7 12.4 8.5 7.3 5.9 6.8 2.0 1.4
4.3 4.3 3.8 2.6 1.9 1.6 1.1 0.6 0.5 0.6 2.8 1.9 3.0 2.7 1.1 1.1 3.0 3.5 7.0 11.5 19.0 11.7 12.6 8.7 7.2 6.8 7.9 9.4 13.4 8.2 9.9 10.9 9.4 8.4 6.3 9.0 5.4 1.1
9.5 12.4 6.8 3.6 2.6 1.8 2.2 1.9 1.2 0.6 2.0 3.3 3.8 2.7 7.0 6.3 7.7 8.3 11.0 15.1 17.6 14.4 15.1 11.5 11.3 14.3 12.0 9.9 7.8 12.7 11.3 13.1 10.5 7.8 6.1 8.8 8.5 3.8
10.2 8.0 5.2 3.3 2.5 1.5 1.8 2.4 2.6 1.2 2.5 4.5 5.8 7.0 9.6 8.3 8.9 10.8 11.3 12.9 15.2 12.4 12.6 8.6 12.7 20.1 27.3 14.3 6.2 5.5 18.2 14.5 9.6 9.6 6.1 5.7 8.6 6.6
5.6 5.2 3.7 3.1 2.5 2.8 2.7 4.5 4.3 2.5 4.5 5.4 8.4 8.7 11.3 14.0 12.6 11.7 11.3 14.7 15.0 11.1 9.7 7.8 7.6 15.2 31.6 23.9 16.4 9.2 6.8 12.4 11.3 12.6 10.1 6.5 5.3 1.6
4.0 3.7 2.4 2.8 3.5 3.5 4.6 6.0 5.7 9.1 10.9 13.1 11.0 12.4 11.5 16.5 14.2 9.3 10.9 8.8 9.6 10.8 12.3 5.7 4.7 3.0 11.5 15.2 18.2 6.7 7.3 4.5 4.0 10.2 9.6 11.8 7.8 4.7
3.8 4.3 3.0 3.2 5.1 6.8 9.5 8.9 11.3 9.8 11.7 12.2 11.2 12.3 12.6 14.9 17.2 12.5 9.8 11.7 8.1 8.5 9.0 4.9 6.4 10.0 13.8 18.4 11.4 5.5 4.9 4.6 3.5 2.2 2.2 4.3 15.0 20.5
5.5 5.9 6.4 5.8 6.7 8.3 10.5 11.5 11.6 10.6 10.6 13.5 14.8 13.7 13.7 15.8 9.3 9.2 10.5 10.0 11.5 14.1 10.7 11.7 8.4 9.4 10.9 11.8 10.1 8.2 5.3 4.7 4.7 5.6 6.1 1.9 1.3 1.5